Location: Asheville, NC
(35.6000°N, 82.5500°W)
Time: 23:42:38
(UTC-04:00)

Hubble Space Telescope - Pass Details

Date: 11 January 2018
Orbit: 537 x 541 km, 28.5° (Epoch: 17 June)

Event Time Altitude Azimuth Distance (km) Brightness Sun altitude
Exits shadow 05:37:48 21° 183° (S) 1,229 2.6 -24.4°
Drops below altitude 10° 05:40:28 10° 143° (SE) 1,781 4.0 -23.8°
Sets 05:43:07 0° 127° (SE) 2,670 5.4 -23.3°
